Time,TemperatureF,DewpointF,PressureIn,WindDirection,WindDirectionDegrees,WindSpeedMPH,WindSpeedGustMPH,Humidity,HourlyPrecipIn,Conditions,Clouds,dailyrainin,SoftwareType,DateUTC
2013-12-15 00:12:00,17.0,-99.9,-100.00,West,263,10.0,14.0,-999,0.00,,,0.00,,2013-12-15 06:12:00,
2013-12-15 00:22:00,17.0,-99.9,-100.00,West,263,10.0,14.0,-999,0.00,,,0.00,,2013-12-15 06:22:00,
2013-12-15 00:42:00,16.0,-99.9,-100.00,West,262,8.0,14.0,-999,0.00,,,0.00,,2013-12-15 06:42:00,
2013-12-15 00:52:00,16.0,-99.9,-100.00,West,262,8.0,14.0,-999,0.00,,,0.00,,2013-12-15 06:52:00,
2013-12-15 01:12:00,15.0,-99.9,-100.00,West,262,8.0,11.0,-999,0.00,,,0.00,,2013-12-15 07:12:00,
2013-12-15 01:22:00,15.0,-99.9,-100.00,West,262,8.0,11.0,-999,0.00,,,0.00,,2013-12-15 07:22:00,
2013-12-15 01:42:00,14.0,-99.9,-100.00,West,260,8.0,11.0,-999,0.00,,,0.00,,2013-12-15 07:42:00,
2013-12-15 01:52:00,14.0,-99.9,-100.00,West,260,8.0,11.0,-999,0.00,,,0.00,,2013-12-15 07:52:00,
2013-12-15 02:11:00,14.0,-99.9,-100.00,West,260,8.0,10.0,-999,0.00,,,0.00,,2013-12-15 08:11:00,
2013-12-15 02:22:00,14.0,-99.9,-100.00,West,260,8.0,10.0,-999,0.00,,,0.00,,2013-12-15 08:22:00,
2013-12-15 02:42:00,15.0,-99.9,-100.00,West,263,9.0,13.0,-999,0.00,,,0.00,,2013-12-15 08:42:00,
2013-12-15 02:52:00,15.0,-99.9,-100.00,West,263,9.0,13.0,-999,0.00,,,0.00,,2013-12-15 08:52:00,
2013-12-15 03:11:00,15.0,-99.9,-100.00,West,259,10.0,13.0,-999,0.00,,,0.00,,2013-12-15 09:11:00,
2013-12-15 03:22:00,15.0,-99.9,-100.00,West,259,10.0,13.0,-999,0.00,,,0.00,,2013-12-15 09:22:00,
2013-12-15 03:43:00,15.0,-99.9,-100.00,West,265,7.0,10.0,-999,0.00,,,0.00,,2013-12-15 09:43:00,
2013-12-15 03:53:00,15.0,-99.9,-100.00,West,265,7.0,10.0,-999,0.00,,,0.00,,2013-12-15 09:53:00,
2013-12-15 04:13:00,14.0,-99.9,-100.00,West,259,8.0,11.0,-999,0.00,,,0.00,,2013-12-15 10:13:00,
2013-12-15 04:23:00,14.0,-99.9,-100.00,West,259,8.0,11.0,-999,0.00,,,0.00,,2013-12-15 10:23:00,
2013-12-15 04:43:00,13.0,-99.9,-100.00,West,264,6.0,9.0,-999,0.00,,,0.00,,2013-12-15 10:43:00,
2013-12-15 04:53:00,13.0,-99.9,-100.00,West,264,6.0,9.0,-999,0.00,,,0.00,,2013-12-15 10:53:00,
2013-12-15 05:12:00,12.0,-99.9,-100.00,WSW,254,7.0,11.0,-999,0.00,,,0.00,,2013-12-15 11:12:00,
2013-12-15 05:22:00,12.0,-99.9,-100.00,WSW,254,7.0,11.0,-999,0.00,,,0.00,,2013-12-15 11:22:00,
2013-12-15 05:43:00,11.0,-99.9,-100.00,West,262,8.0,11.0,-999,0.00,,,0.00,,2013-12-15 11:43:00,
2013-12-15 05:52:00,11.0,-99.9,-100.00,West,262,8.0,11.0,-999,0.00,,,0.00,,2013-12-15 11:52:00,
2013-12-15 06:12:00,10.0,-99.9,-100.00,West,263,10.0,14.0,-999,0.00,,,0.00,,2013-12-15 12:12:00,
2013-12-15 06:22:00,10.0,-99.9,-100.00,West,263,10.0,14.0,-999,0.00,,,0.00,,2013-12-15 12:22:00,
2013-12-15 06:42:00,9.0,-99.9,-100.00,West,260,8.0,10.0,-999,0.00,,,0.00,,2013-12-15 12:42:00,
2013-12-15 06:52:00,9.0,-99.9,-100.00,West,260,8.0,10.0,-999,0.00,,,0.00,,2013-12-15 12:52:00,
2013-12-15 07:11:00,9.0,-99.9,-100.00,West,267,8.0,11.0,-999,0.00,,,0.00,,2013-12-15 13:11:00,
2013-12-15 07:22:00,9.0,-99.9,-100.00,West,267,8.0,11.0,-999,0.00,,,0.00,,2013-12-15 13:22:00,
2013-12-15 07:42:00,9.0,-99.9,-100.00,West,271,7.0,12.0,-999,0.00,,,0.00,,2013-12-15 13:42:00,
2013-12-15 07:52:00,9.0,-99.9,-100.00,West,271,7.0,12.0,-999,0.00,,,0.00,,2013-12-15 13:52:00,
2013-12-15 08:11:00,9.0,-99.9,-100.00,West,268,10.0,19.0,-999,0.00,,,0.00,,2013-12-15 14:11:00,
2013-12-15 08:22:00,9.0,-99.9,-100.00,West,268,10.0,19.0,-999,0.00,,,0.00,,2013-12-15 14:22:00,
2013-12-15 08:42:00,10.0,-99.9,-100.00,West,274,9.0,11.0,-999,0.00,,,0.00,,2013-12-15 14:42:00,
2013-12-15 08:52:00,10.0,-99.9,-100.00,West,274,9.0,11.0,-999,0.00,,,0.00,,2013-12-15 14:52:00,
2013-12-15 09:12:00,10.0,-99.9,-100.00,West,259,8.0,11.0,-999,0.00,,,0.00,,2013-12-15 15:12:00,
2013-12-15 09:22:00,10.0,-99.9,-100.00,West,259,8.0,11.0,-999,0.00,,,0.00,,2013-12-15 15:22:00,
2013-12-15 09:44:00,11.0,-99.9,-100.00,West,262,7.0,12.0,-999,0.00,,,0.00,,2013-12-15 15:44:00,
2013-12-15 09:54:00,11.0,-99.9,-100.00,West,262,7.0,12.0,-999,0.00,,,0.00,,2013-12-15 15:54:00,
2013-12-15 10:13:00,11.0,-99.9,-100.00,West,274,9.0,16.0,-999,0.00,,,0.00,,2013-12-15 16:13:00,
2013-12-15 10:23:00,11.0,-99.9,-100.00,West,274,9.0,16.0,-999,0.00,,,0.00,,2013-12-15 16:23:00,
2013-12-15 10:43:00,11.0,-99.9,-100.00,West,276,8.0,11.0,-999,0.00,,,0.00,,2013-12-15 16:43:00,
2013-12-15 10:53:00,11.0,-99.9,-100.00,West,276,8.0,11.0,-999,0.00,,,0.00,,2013-12-15 16:53:00,
2013-12-15 11:12:00,12.0,-99.9,-100.00,West,273,7.0,11.0,-999,0.00,,,0.00,,2013-12-15 17:12:00,
2013-12-15 11:22:00,12.0,-99.9,-100.00,West,273,7.0,11.0,-999,0.00,,,0.00,,2013-12-15 17:22:00,
2013-12-15 11:43:00,12.0,-99.9,-100.00,West,273,10.0,14.0,-999,0.00,,,0.00,,2013-12-15 17:43:00,
2013-12-15 11:52:00,12.0,-99.9,-100.00,West,273,10.0,14.0,-999,0.00,,,0.00,,2013-12-15 17:52:00,
2013-12-15 12:12:00,12.0,-99.9,-100.00,West,268,9.0,14.0,-999,0.00,,,0.00,,2013-12-15 18:12:00,
2013-12-15 12:22:00,12.0,-99.9,-100.00,West,268,9.0,14.0,-999,0.00,,,0.00,,2013-12-15 18:22:00,
2013-12-15 12:43:00,12.0,-99.9,-100.00,West,270,9.0,12.0,-999,0.00,,,0.00,,2013-12-15 18:43:00,
2013-12-15 12:52:00,12.0,-99.9,-100.00,West,270,9.0,12.0,-999,0.00,,,0.00,,2013-12-15 18:52:00,
2013-12-15 13:11:00,13.0,-99.9,-100.00,West,270,9.0,14.0,-999,0.00,,,0.00,,2013-12-15 19:11:00,
2013-12-15 13:22:00,13.0,-99.9,-100.00,West,270,9.0,14.0,-999,0.00,,,0.00,,2013-12-15 19:22:00,
2013-12-15 13:42:00,13.0,-99.9,-100.00,West,276,7.0,12.0,-999,0.00,,,0.00,,2013-12-15 19:42:00,
2013-12-15 13:53:00,13.0,-99.9,-100.00,West,276,7.0,12.0,-999,0.00,,,0.00,,2013-12-15 19:53:00,
2013-12-15 14:11:00,14.0,-99.9,-100.00,West,268,7.0,10.0,-999,0.00,,,0.00,,2013-12-15 20:11:00,
2013-12-15 14:22:00,14.0,-99.9,-100.00,West,268,7.0,10.0,-999,0.00,,,0.00,,2013-12-15 20:22:00,
2013-12-15 14:42:00,14.0,-99.9,-100.00,West,281,8.0,11.0,-999,0.00,,,0.00,,2013-12-15 20:42:00,
2013-12-15 14:52:00,14.0,-99.9,-100.00,West,281,8.0,11.0,-999,0.00,,,0.00,,2013-12-15 20:52:00,
2013-12-15 15:11:00,14.0,-99.9,-100.00,West,263,7.0,9.0,-999,0.00,,,0.00,,2013-12-15 21:11:00,
2013-12-15 15:22:00,14.0,-99.9,-100.00,West,263,7.0,9.0,-999,0.00,,,0.00,,2013-12-15 21:22:00,
2013-12-15 15:43:00,14.0,-99.9,-100.00,WNW,282,6.0,9.0,-999,0.00,,,0.00,,2013-12-15 21:43:00,
2013-12-15 15:54:00,14.0,-99.9,-100.00,WNW,282,6.0,9.0,-999,0.00,,,0.00,,2013-12-15 21:54:00,
2013-12-15 16:13:00,14.0,-99.9,-100.00,West,270,5.0,9.0,-999,0.00,,,0.00,,2013-12-15 22:13:00,
2013-12-15 16:23:00,14.0,-99.9,-100.00,West,270,5.0,9.0,-999,0.00,,,0.00,,2013-12-15 22:23:00,
2013-12-15 16:43:00,14.0,-99.9,-100.00,West,278,6.0,8.0,-999,0.00,,,0.00,,2013-12-15 22:43:00,
2013-12-15 16:53:00,14.0,-99.9,-100.00,West,278,6.0,8.0,-999,0.00,,,0.00,,2013-12-15 22:53:00,
2013-12-15 17:12:00,14.0,-99.9,-100.00,WSW,255,5.0,7.0,-999,0.00,,,0.00,,2013-12-15 23:12:00,
2013-12-15 17:22:00,14.0,-99.9,-100.00,WSW,255,5.0,7.0,-999,0.00,,,0.00,,2013-12-15 23:22:00,
2013-12-15 17:42:00,14.0,-99.9,-100.00,West,267,5.0,6.0,-999,0.00,,,0.00,,2013-12-15 23:42:00,
2013-12-15 17:53:00,14.0,-99.9,-100.00,West,267,5.0,6.0,-999,0.00,,,0.00,,2013-12-15 23:53:00,
2013-12-15 18:00:00,15.0,-99.9,-100.00,West,271,2.0,4.0,-999,0.00,,,0.00,,2013-12-16 00:00:00,
2013-12-15 18:11:00,14.0,-99.9,-100.00,West,262,2.0,5.0,-999,0.00,,,0.00,,2013-12-16 00:11:00,
2013-12-15 18:22:00,14.0,-99.9,-100.00,West,262,2.0,5.0,-999,0.00,,,0.00,,2013-12-16 00:22:00,
2013-12-15 18:42:00,15.0,-99.9,-100.00,West,271,2.0,4.0,-999,0.00,,,0.00,,2013-12-16 00:42:00,
2013-12-15 18:52:00,15.0,-99.9,-100.00,West,271,2.0,4.0,-999,0.00,,,0.00,,2013-12-16 00:52:00,
2013-12-15 20:11:00,14.0,-99.9,-100.00,NW,320,4.0,6.0,-999,-99.99,,,0.00,,2013-12-16 02:11:00,
2013-12-15 20:22:00,14.0,-99.9,-100.00,NW,320,4.0,6.0,-999,-99.99,,,0.00,,2013-12-16 02:22:00,
2013-12-15 20:42:00,13.0,-99.9,-100.00,NNW,339,3.0,5.0,-999,0.00,,,0.00,,2013-12-16 02:42:00,
2013-12-15 20:52:00,13.0,-99.9,-100.00,NNW,339,3.0,5.0,-999,0.00,,,0.00,,2013-12-16 02:52:00,
2013-12-15 21:00:00,13.0,-99.9,-100.00,North,351,3.0,5.0,-999,0.00,,,0.00,,2013-12-16 03:00:00,
2013-12-15 21:12:00,13.0,-99.9,-100.00,NW,312,1.0,2.0,-999,0.00,,,0.00,,2013-12-16 03:12:00,
2013-12-15 21:22:00,13.0,-99.9,-100.00,NW,312,1.0,2.0,-999,0.00,,,0.00,,2013-12-16 03:22:00,
2013-12-15 21:44:00,13.0,-99.9,-100.00,North,351,3.0,5.0,-999,0.00,,,0.00,,2013-12-16 03:44:00,
2013-12-15 21:54:00,13.0,-99.9,-100.00,North,351,3.0,5.0,-999,0.00,,,0.00,,2013-12-16 03:54:00,
2013-12-15 22:43:00,13.0,-99.9,-100.00,NNW,327,3.0,4.0,-999,0.00,,,0.00,,2013-12-16 04:43:00,
2013-12-15 22:53:00,13.0,-99.9,-100.00,NNW,327,3.0,4.0,-999,0.00,,,0.00,,2013-12-16 04:53:00,
2013-12-15 23:12:00,13.0,-99.9,-100.00,NNW,335,3.0,4.0,-999,0.00,,,0.00,,2013-12-16 05:12:00,
2013-12-15 23:22:00,13.0,-99.9,-100.00,NNW,335,3.0,4.0,-999,0.00,,,0.00,,2013-12-16 05:22:00,
2013-12-15 23:43:00,13.0,-99.9,-100.00,North,4,3.0,4.0,-999,0.00,,,0.00,,2013-12-16 05:43:00,
2013-12-15 23:53:00,13.0,-99.9,-100.00,North,4,3.0,4.0,-999,0.00,,,0.00,,2013-12-16 05:53:00,